Weather History for KCGI - October, 2012

Change the Weather History Date:

Monday, October 8, 2012

  Actual Average Record
Temperature  
Mean Temperature 48 °F 60 °F  
Max Temperature 60 °F 73 °F 89 °F (2007)
Min Temperature 36 °F 47 °F 29 °F (2000)
Degree Days  
Heating Degree Days 17 6  
Month to date heating degree days 77 44  
Since 1 July heating degree days 123 93  
Cooling Degree Days 0 1  
Month to date cooling degree days 2 15  
Year to date cooling degree days 1766 1437  
Moisture  
Dew Point 39 °F    
Average Humidity 70    
Maximum Humidity 100    
Minimum Humidity 39    
Precipitation  
Precipitation 0.00 in 0.12 in 1.86 in (1999)
Month to date precipitation 0.24 0.93  
Year to date precipitation 21.62 35.26  
Sea Level Pressure  
Sea Level Pressure 30.20 in    
Wind  
Wind Speed 3 mph (SSW)    
Max Wind Speed 10 mph    
Max Gust Speed 14 mph    
Visibility 9 miles    
Events Fog    
T = Trace of Precipitation, MM = Missing Value Source: NWS Daily Summary

Daily Weather History Graph

Daily Weather History Graph

Search for Another Location

Airport or City:

Trip Planner

Search our weather history database for the weather conditions in past years. The results will help you decide how hot, cold, wet, or windy it might be!

Date:

Astronomy

Oct. 08, 2012 Rise Set
Actual Time 7:00 AM CDT 6:30 PM CDT
Civil Twilight 6:34 AM CDT 6:56 PM CDT
Nautical Twilight 6:04 AM CDT 7:26 PM CDT
Astronomical Twilight 5:33 AM CDT 7:56 PM CDT
Moon No Moon Rise 2:11 PM CDT (10/8)
Length of Visible Light 12h 22m
Length of Day
11h 30m
Last Quarter, 46% of the Moon is Illuminated
Oct 8
Last Quarter
Oct 15
New
Oct 21
First Quarter
Oct 29
Full
Nov 6
Last Quarter

Hourly Weather History & Observations

Time (CDT) Temp. Windchill Dew Point Humidity Pressure Visibility Wind Dir Wind Speed Gust Speed Precip Events Conditions
12:53 AM 44.1 °F - 42.1 °F 93% 30.20 in 10.0 mi Calm Calm - N/A   Clear
1:53 AM 43.0 °F - 41.0 °F 93% 30.22 in 10.0 mi Calm Calm - N/A   Clear
2:53 AM 44.1 °F - 42.1 °F 93% 30.22 in 10.0 mi Calm Calm - N/A   Clear
3:53 AM 44.1 °F - 42.1 °F 93% 30.21 in 9.0 mi Calm Calm - N/A   Clear
4:53 AM 44.1 °F - 42.1 °F 93% 30.22 in 10.0 mi Calm Calm - N/A   Partly Cloudy
5:53 AM 44.1 °F - 42.1 °F 93% 30.22 in 9.0 mi Calm Calm - N/A   Clear
6:53 AM 39.9 °F - 39.0 °F 97% 30.24 in 10.0 mi Calm Calm - N/A   Clear
7:09 AM 39.2 °F 37.0 °F 37.4 °F 93% 30.24 in 1.8 mi WSW 3.5 mph - N/A   Clear
7:16 AM 39.2 °F 35.9 °F 37.4 °F 93% 30.24 in 0.2 mi WSW 4.6 mph - N/A Fog Fog
7:27 AM 39.2 °F - 37.4 °F 93% 30.25 in 1.0 mi Calm Calm - N/A   Clear
7:30 AM 39.2 °F - 39.2 °F 100% 30.24 in 3.0 mi Calm Calm - N/A   Clear
7:53 AM 42.1 °F - 39.9 °F 92% 30.25 in 8.0 mi Calm Calm - N/A   Clear
8:53 AM 48.0 °F - 42.1 °F 80% 30.26 in 10.0 mi Calm Calm - N/A   Clear
9:53 AM 51.1 °F - 41.0 °F 68% 30.27 in 10.0 mi West 8.1 mph - N/A   Clear
10:53 AM 54.0 °F - 37.9 °F 55% 30.26 in 10.0 mi West 5.8 mph - N/A   Clear
11:53 AM 55.9 °F - 37.0 °F 49% 30.24 in 10.0 mi Variable 5.8 mph - N/A   Partly Cloudy
12:53 PM 57.9 °F - 36.0 °F 44% 30.21 in 10.0 mi West 5.8 mph - N/A   Clear
1:53 PM 59.0 °F - 36.0 °F 42% 30.17 in 10.0 mi Calm Calm - N/A   Clear
2:53 PM 60.1 °F - 37.0 °F 42% 30.16 in 10.0 mi South 4.6 mph - N/A   Clear
3:53 PM 60.1 °F - 36.0 °F 41% 30.14 in 10.0 mi Variable 4.6 mph - N/A   Clear
4:53 PM 60.1 °F - 36.0 °F 41% 30.13 in 10.0 mi SSW 5.8 mph - N/A   Clear
5:53 PM 57.0 °F - 37.0 °F 47% 30.12 in 10.0 mi South 6.9 mph - N/A   Clear
6:53 PM 48.0 °F - 39.9 °F 74% 30.12 in 10.0 mi South 3.5 mph - N/A   Clear
7:53 PM 45.0 °F 42.6 °F 39.0 °F 80% 30.12 in 10.0 mi South 4.6 mph - N/A   Clear
8:53 PM 43.0 °F 40.3 °F 39.0 °F 86% 30.13 in 10.0 mi SSE 4.6 mph - N/A   Clear
9:53 PM 43.0 °F 39.5 °F 39.0 °F 86% 30.13 in 10.0 mi South 5.8 mph - N/A   Clear
10:53 PM 39.9 °F - 37.9 °F 93% 30.14 in 10.0 mi Calm Calm - N/A   Clear
11:53 PM 39.2 °F - 37.4 °F 93% 30.13 in 10.0 mi Calm Calm - N/A   Clear